When you browse on this site, cookies collect data to enhance your experience and personalize the content and advertising you see.
Visit our Privacy Policy to learn more. By continuing to use the site, you agree to this use of cookies and data.
EN

Hourly Weather Ischgl

Today, 12 August, Wednesday

Time Temperature Precipitation Wind Pressure Humidity
00:00 +10°C° 0 mm 1 mps 578 mmHg 84%
01:00 +9°C° 0 mm 1 mps 578 mmHg 84%
02:00 +9°C° 0 mm 1 mps 578 mmHg 84%
03:00 +9°C° 0 mm 1 mps 577 mmHg 84%
04:00 +8°C° 0 mm 1 mps 577 mmHg 84%
05:00 +10°C° 0 mm 1 mps 578 mmHg 80%
06:00 +12°C° 0 mm 1 mps 579 mmHg 75%
07:00 +13°C° 0 mm 1 mps 580 mmHg 71%
08:00 +15°C° 0 mm 1 mps 580 mmHg 64%
09:00 +16°C° 0 mm 1 mps 581 mmHg 58%
10:00 +19°C° 0 mm 1 mps 582 mmHg 52%
11:00 +19°C° 0.2 mm 1 mps 582 mmHg 50%
12:00 +20°C° 0.2 mm 1 mps 582 mmHg 47%
13:00 +20°C° 0.2 mm 1 mps 582 mmHg 45%
14:00 +20°C° 0.3 mm 1 mps 582 mmHg 46%
15:00 +20°C° 0.3 mm 1 mps 582 mmHg 47%
16:00 +20°C° 0.3 mm 1 mps 582 mmHg 49%
17:00 +18°C° 0.3 mm 1 mps 581 mmHg 58%
18:00 +15°C° 0.3 mm 1 mps 580 mmHg 66%
19:00 +14°C° 0.3 mm 1 mps 580 mmHg 75%
20:00 +13°C° 0.1 mm 1 mps 579 mmHg 78%
21:00 +11°C° 0.1 mm 1 mps 578 mmHg 81%
22:00 +10°C° 0.1 mm 1 mps 578 mmHg 84%
23:00 +10°C° 0 mm 1 mps 578 mmHg 83%

Tomorrow, 13 August, Thursday

Time Temperature Precipitation Wind Pressure Humidity
00:00 +10°C° 0 mm 1 mps 578 mmHg 83%
01:00 +10°C° 0 mm 1 mps 578 mmHg 83%
02:00 +10°C° 0 mm 1 mps 578 mmHg 83%
03:00 +10°C° 0 mm 1 mps 578 mmHg 82%
04:00 +10°C° 0 mm 1 mps 578 mmHg 82%
05:00 +11°C° 0 mm 1 mps 578 mmHg 79%
06:00 +12°C° 0 mm 1 mps 579 mmHg 77%
07:00 +12°C° 0 mm 0 mps 580 mmHg 74%
08:00 +13°C° 0.5 mm 0 mps 580 mmHg 72%
09:00 +15°C° 0.5 mm 1 mps 580 mmHg 69%
10:00 +15°C° 0.5 mm 1 mps 580 mmHg 66%
11:00 +16°C° 1.2 mm 1 mps 580 mmHg 67%
12:00 +16°C° 1.2 mm 1 mps 580 mmHg 67%
13:00 +16°C° 1.2 mm 1 mps 580 mmHg 68%
14:00 +15°C° 1.4 mm 1 mps 580 mmHg 70%
15:00 +15°C° 1.4 mm 1 mps 580 mmHg 71%
16:00 +15°C° 1.4 mm 1 mps 580 mmHg 73%
17:00 +14°C° 1.1 mm 1 mps 579 mmHg 78%
18:00 +13°C° 1.1 mm 1 mps 579 mmHg 84%
19:00 +12°C° 1.1 mm 1 mps 578 mmHg 89%
20:00 +11°C° 0.2 mm 1 mps 578 mmHg 90%
21:00 +9°C° 0.2 mm 0 mps 577 mmHg 91%
22:00 +8°C° 0.2 mm 0 mps 577 mmHg 92%
23:00 +8°C° 0.3 mm 0 mps 577 mmHg 92%

Day after tomorrow, 14 August, Friday

Time Temperature Precipitation Wind Pressure Humidity
00:00 +8°C° 0.3 mm 0 mps 577 mmHg 92%
01:00 +8°C° 0.3 mm 0 mps 577 mmHg 92%
02:00 +8°C° 0.6 mm 0 mps 577 mmHg 92%
03:00 +8°C° 0.6 mm 0 mps 577 mmHg 93%
04:00 +9°C° 0.6 mm 1 mps 577 mmHg 93%
05:00 +9°C° 1.3 mm 1 mps 577 mmHg 94%
06:00 +9°C° 1.3 mm 1 mps 577 mmHg 94%
07:00 +9°C° 1.3 mm 1 mps 577 mmHg 95%
08:00 +9°C° 1.9 mm 1 mps 577 mmHg 94%
09:00 +9°C° 1.9 mm 1 mps 576 mmHg 93%
10:00 +9°C° 1.9 mm 1 mps 576 mmHg 92%
11:00 +9°C° 0.7 mm 1 mps 576 mmHg 90%
12:00 +9°C° 0.7 mm 1 mps 576 mmHg 88%
13:00 +9°C° 0.7 mm 1 mps 576 mmHg 85%
14:00 +10°C° 0.1 mm 1 mps 576 mmHg 82%
15:00 +11°C° 0.1 mm 1 mps 577 mmHg 79%
16:00 +11°C° 0.1 mm 1 mps 577 mmHg 76%
17:00 +11°C° 0.1 mm 1 mps 577 mmHg 80%
18:00 +10°C° 0.1 mm 1 mps 577 mmHg 83%
19:00 +9°C° 0.1 mm 1 mps 576 mmHg 87%
20:00 +8°C° 0 mm 1 mps 576 mmHg 89%
21:00 +8°C° 0 mm 1 mps 576 mmHg 91%
22:00 +7°C° 0 mm 1 mps 576 mmHg 92%
23:00 +6°C° 0 mm 1 mps 575 mmHg 92%

15 August, Saturday

Time Temperature Precipitation Wind Pressure Humidity
00:00 +6°C° 0 mm 1 mps 575 mmHg 92%
01:00 +6°C° 0 mm 1 mps 575 mmHg 92%
02:00 +5°C° 0 mm 1 mps 575 mmHg 92%
03:00 +4°C° 0 mm 0 mps 575 mmHg 92%
04:00 +4°C° 0 mm 0 mps 574 mmHg 92%
05:00 +5°C° 0 mm 0 mps 575 mmHg 89%
06:00 +7°C° 0 mm 0 mps 576 mmHg 85%
07:00 +8°C° 0 mm 0 mps 576 mmHg 81%
08:00 +11°C° 0 mm 1 mps 577 mmHg 73%
09:00 +12°C° 0 mm 1 mps 578 mmHg 65%
10:00 +14°C° 0 mm 1 mps 579 mmHg 56%
11:00 +15°C° 0 mm 1 mps 579 mmHg 53%
12:00 +16°C° 0 mm 1 mps 579 mmHg 49%
13:00 +18°C° 0 mm 1 mps 579 mmHg 46%
14:00 +17°C° 0.2 mm 2 mps 579 mmHg 49%
15:00 +17°C° 0.2 mm 2 mps 579 mmHg 51%
16:00 +17°C° 0.2 mm 2 mps 579 mmHg 54%
17:00 +15°C° 0.4 mm 2 mps 578 mmHg 65%
18:00 +13°C° 0.4 mm 1 mps 577 mmHg 76%
19:00 +11°C° 0.4 mm 1 mps 576 mmHg 87%
20:00 +10°C° 0.1 mm 1 mps 575 mmHg 88%
21:00 +8°C° 0.1 mm 0 mps 575 mmHg 90%
22:00 +6°C° 0.1 mm 0 mps 574 mmHg 91%
23:00 +6°C° 0 mm 0 mps 574 mmHg 90%

16 August, Sunday

Time Temperature Precipitation Wind Pressure Humidity
00:00 +6°C° 0 mm 0 mps 574 mmHg 89%
01:00 +6°C° 0 mm 1 mps 574 mmHg 89%
02:00 +6°C° 0 mm 1 mps 573 mmHg 88%
03:00 +6°C° 0 mm 1 mps 573 mmHg 88%
04:00 +6°C° 0 mm 1 mps 573 mmHg 88%
05:00 +7°C° 0 mm 1 mps 574 mmHg 85%
06:00 +9°C° 0 mm 1 mps 575 mmHg 82%
07:00 +11°C° 0 mm 1 mps 576 mmHg 79%
08:00 +13°C° 0 mm 1 mps 577 mmHg 70%
09:00 +13°C° 0 mm 0 mps 577 mmHg 61%
10:00 +15°C° 0 mm 0 mps 578 mmHg 51%
11:00 +18°C° 0.3 mm 1 mps 578 mmHg 48%
12:00 +18°C° 0.3 mm 1 mps 578 mmHg 45%
13:00 +19°C° 0.3 mm 1 mps 579 mmHg 42%
14:00 +18°C° 0.7 mm 1 mps 578 mmHg 49%
15:00 +16°C° 0.7 mm 1 mps 577 mmHg 55%
16:00 +15°C° 0.7 mm 2 mps 577 mmHg 62%
17:00 +14°C° 0.7 mm 1 mps 576 mmHg 68%
18:00 +13°C° 0.7 mm 1 mps 575 mmHg 75%
19:00 +12°C° 0.7 mm 1 mps 575 mmHg 82%
20:00 +11°C° 0 mm 1 mps 574 mmHg 83%
21:00 +9°C° 0 mm 2 mps 574 mmHg 84%
22:00 +8°C° 0 mm 2 mps 574 mmHg 85%
23:00 +8°C° 0 mm 2 mps 574 mmHg 86%

17 August, Monday

Time Temperature Precipitation Wind Pressure Humidity
00:00 +8°C° 0 mm 2 mps 574 mmHg 86%
01:00 +8°C° 0 mm 2 mps 574 mmHg 86%
02:00 +7°C° 0 mm 2 mps 574 mmHg 87%
03:00 +8°C° 0 mm 1 mps 574 mmHg 87%
04:00 +8°C° 0 mm 1 mps 574 mmHg 88%
05:00 +8°C° 0 mm 1 mps 574 mmHg 87%
06:00 +9°C° 0 mm 1 mps 575 mmHg 85%
07:00 +10°C° 0 mm 1 mps 575 mmHg 84%
08:00 +11°C° 0.2 mm 1 mps 576 mmHg 80%
09:00 +12°C° 0.2 mm 1 mps 576 mmHg 77%
10:00 +13°C° 0.2 mm 1 mps 577 mmHg 73%
11:00 +14°C° 0.9 mm 2 mps 577 mmHg 72%
12:00 +14°C° 0.9 mm 2 mps 577 mmHg 72%
13:00 +15°C° 0.9 mm 2 mps 577 mmHg 71%
14:00 +14°C° 1.2 mm 2 mps 577 mmHg 72%
15:00 +14°C° 1.2 mm 2 mps 577 mmHg 74%
16:00 +13°C° 1.2 mm 2 mps 576 mmHg 75%
17:00 +12°C° 1.6 mm 2 mps 576 mmHg 80%
18:00 +10°C° 1.6 mm 2 mps 575 mmHg 86%
19:00 +8°C° 1.6 mm 2 mps 575 mmHg 91%
20:00 +9°C° 0.5 mm 1 mps 575 mmHg 92%
21:00 +8°C° 0.5 mm 1 mps 575 mmHg 93%
22:00 +7°C° 0.5 mm 1 mps 575 mmHg 93%
23:00 +7°C° 0.1 mm 1 mps 574 mmHg 93%
Show more